| time (UTC) | temp F | wind direction | speed MPH | gust MPH | rain 1hr in | rain 24hr in | rain mn in | humidity % | barometer mb |
| 20260507220042 | 78 | 203 | 10.0 | 17.0 | 0.00 | 0.00 | 0.00 | 27 | 1012.4 |
| 20260507214530 | 77 | 211 | 9.0 | 18.0 | 0.00 | 0.00 | 0.00 | 27 | 1012.6 |
| 20260507213024 | 77 | 221 | 9.0 | 17.0 | 0.00 | 0.00 | 0.00 | 28 | 1012.8 |
| 20260507211529 | 77 | 232 | 13.0 | 20.0 | 0.00 | 0.00 | 0.00 | 27 | 1013.0 |
| 20260507210019 | 76 | 259 | 13.0 | 17.0 | 0.00 | 0.00 | 0.00 | 28 | 1013.1 |
| 20260507204518 | 76 | 264 | 11.0 | 19.0 | 0.00 | 0.00 | 0.00 | 28 | 1013.3 |
| 20260507203016 | 76 | 214 | 13.0 | 20.0 | 0.00 | 0.00 | 0.00 | 30 | 1013.4 |
| 20260507201517 | 76 | 215 | 12.0 | 21.0 | 0.00 | 0.00 | 0.00 | 30 | 1013.5 |
| 20260507200012 | 75 | 262 | 13.0 | 23.0 | 0.00 | 0.00 | 0.00 | 31 | 1013.5 |
| 20260507194510 | 75 | 246 | 13.0 | 19.0 | 0.00 | 0.00 | 0.00 | 31 | 1013.6 |
| 20260507193011 | 74 | 200 | 12.0 | 24.0 | 0.00 | 0.00 | 0.00 | 32 | 1013.8 |
| 20260507191510 | 73 | 195 | 12.0 | 23.0 | 0.00 | 0.00 | 0.00 | 30 | 1013.9 |
| 20260507190006 | 73 | 269 | 12.0 | 23.0 | 0.00 | 0.00 | 0.00 | 28 | 1014.0 |
| 20260507184504 | 73 | 252 | 13.0 | 20.0 | 0.00 | 0.00 | 0.00 | 26 | 1014.1 |
| 20260507183002 | 72 | 264 | 15.0 | 24.0 | 0.00 | 0.00 | 0.00 | 27 | 1014.2 |
| 20260507181540 | 72 | 269 | 17.0 | 25.0 | 0.00 | 0.00 | 0.00 | 28 | 1014.1 |
| 20260507180040 | 72 | 204 | 17.0 | 23.0 | 0.00 | 0.00 | 0.00 | 30 | 1014.1 |
| 20260507174540 | 71 | 215 | 14.0 | 19.0 | 0.00 | 0.00 | 0.00 | 34 | 1014.3 |
| 20260507173023 | 70 | 195 | 16.0 | 22.0 | 0.00 | 0.00 | 0.00 | 35 | 1014.3 |
| 20260507171621 | 70 | 214 | 16.0 | 21.0 | 0.00 | 0.00 | 0.00 | 37 | 1014.3 |
| 20260507170058 | 69 | 181 | 7.0 | 14.0 | 0.00 | 0.00 | 0.00 | 45 | 1014.5 |
| 20260507164539 | 68 | 163 | 5.0 | 14.0 | 0.00 | 0.00 | 0.00 | 43 | 1014.6 |
| 20260507163036 | 68 | 143 | 4.0 | 8.0 | 0.00 | 0.00 | 0.00 | 40 | 1014.8 |
| 20260507161519 | 67 | 190 | 5.0 | 10.0 | 0.00 | 0.00 | 0.00 | 40 | 1014.8 |
| 20260507160015 | 66 | 185 | 11.0 | 13.0 | 0.00 | 0.00 | 0.00 | 44 | 1014.8 |
| 20260507154554 | 66 | 188 | 8.0 | 12.0 | 0.00 | 0.00 | 0.00 | 44 | 1014.8 |
| 20260507153051 | 65 | 210 | 8.0 | 12.0 | 0.00 | 0.00 | 0.00 | 47 | 1014.6 |
| 20260507151529 | 64 | 226 | 9.0 | 12.0 | 0.00 | 0.00 | 0.00 | 48 | 1014.6 |
| 20260507150025 | 62 | 210 | 8.0 | 13.0 | 0.00 | 0.00 | 0.00 | 52 | 1014.6 |
| 20260507144505 | 61 | 225 | 11.0 | 14.0 | 0.00 | 0.00 | 0.00 | 54 | 1014.4 |
| 20260507143119 | 59 | 231 | 9.0 | 11.0 | 0.00 | 0.00 | 0.00 | 57 | 1014.4 |
| 20260507141538 | 58 | 269 | 7.0 | 9.0 | 0.00 | 0.00 | 0.00 | 60 | 1014.4 |
| 20260507140044 | 57 | 267 | 9.0 | 10.0 | 0.00 | 0.00 | 0.00 | 61 | 1014.3 |
| 20260507134514 | 56 | 248 | 5.0 | 7.0 | 0.00 | 0.00 | 0.00 | 64 | 1014.2 |
| 20260507133011 | 54 | 284 | 4.0 | 7.0 | 0.00 | 0.00 | 0.00 | 68 | 1014.2 |
| 20260507131617 | 52 | 301 | 1.0 | 6.0 | 0.00 | 0.00 | 0.00 | 71 | 1014.1 |
| 20260507130052 | 53 | 298 | 2.0 | 3.0 | 0.00 | 0.00 | 0.00 | 70 | 1013.9 |
| 20260507124533 | 54 | 314 | 3.0 | 7.0 | 0.00 | 0.00 | 0.00 | 67 | 1013.8 |
| 20260507123038 | 52 | 321 | 4.0 | 5.0 | 0.00 | 0.00 | 0.00 | 75 | 1013.9 |
| 20260507121510 | 52 | 335 | 5.0 | 7.0 | 0.00 | 0.00 | 0.00 | 73 | 1013.7 |
| 20260507120012 | 51 | 328 | 6.0 | 10.0 | 0.00 | 0.00 | 0.00 | 74 | 1013.7 |
| 20260507114549 | 51 | 331 | 4.0 | 9.0 | 0.00 | 0.00 | 0.00 | 74 | 1013.6 |
| 20260507113107 | 51 | 338 | 5.0 | 11.0 | 0.00 | 0.00 | 0.00 | 75 | 1013.5 |
| 20260507111531 | 55 | 126 | 0.0 | 3.0 | 0.00 | 0.00 | 0.00 | 72 | 1013.7 |
| 20260507110025 | 54 | 120 | 0.0 | 2.0 | 0.00 | 0.00 | 0.00 | 74 | 1013.5 |
| 20260507104517 | 53 | 84 | 1.0 | 6.0 | 0.00 | 0.00 | 0.00 | 75 | 1013.5 |
| 20260507103007 | 55 | 64 | 4.0 | 7.0 | 0.00 | 0.00 | 0.00 | 67 | 1013.2 |
| 20260507101507 | 56 | 263 | 5.0 | 8.0 | 0.00 | 0.00 | 0.00 | 67 | 1013.0 |
| 20260507100008 | 56 | 283 | 6.0 | 9.0 | 0.00 | 0.00 | 0.00 | 68 | 1013.1 |
| 20260507094502 | 58 | 316 | 2.0 | 5.0 | 0.00 | 0.00 | 0.00 | 54 | 1013.0 |
| 20260507093001 | 58 | 294 | 2.0 | 4.0 | 0.00 | 0.00 | 0.00 | 58 | 1013.0 |
| 20260507091559 | 60 | 328 | 6.0 | 11.0 | 0.00 | 0.00 | 0.00 | 56 | 1013.1 |
| 20260507090100 | 59 | 301 | 3.0 | 5.0 | 0.00 | 0.00 | 0.00 | 57 | 1013.3 |
| 20260507084602 | 59 | 309 | 1.0 | 4.0 | 0.00 | 0.00 | 0.00 | 62 | 1013.3 |
| 20260507083035 | 61 | 127 | 2.0 | 6.0 | 0.00 | 0.00 | 0.00 | 58 | 1013.2 |
| 20260507081534 | 61 | 242 | 3.0 | 10.0 | 0.00 | 0.00 | 0.00 | 58 | 1013.0 |
| 20260507080017 | 62 | 260 | 4.0 | 12.0 | 0.00 | 0.00 | 0.00 | 57 | 1012.9 |
| 20260507074516 | 61 | 138 | 2.0 | 10.0 | 0.00 | 0.00 | 0.00 | 52 | 1013.1 |
| 20260507073059 | 64 | 276 | 7.0 | 13.0 | 0.00 | 0.00 | 0.00 | 44 | 1012.6 |
| 20260507071555 | 63 | 307 | 7.0 | 13.0 | 0.00 | 0.00 | 0.00 | 47 | 1012.6 |
| 20260507070044 | 62 | 345 | 10.0 | 15.0 | 0.00 | 0.00 | 0.00 | 48 | 1012.5 |
| 20260507064544 | 64 | 360 | 9.0 | 15.0 | 0.00 | 0.00 | 0.00 | 46 | 1012.6 |
| 20260507063017 | 66 | 20 | 5.0 | 8.0 | 0.00 | 0.00 | 0.00 | 42 | 1012.2 |
| 20260507061517 | 67 | 305 | 3.0 | 7.0 | 0.00 | 0.00 | 0.00 | 40 | 1011.9 |
| 20260507060100 | 66 | 277 | 5.0 | 9.0 | 0.00 | 0.00 | 0.00 | 42 | 1011.8 |
| 20260507054600 | 69 | 345 | 7.0 | 9.0 | 0.00 | 0.00 | 0.00 | 39 | 1012.0 |
| 20260507053049 | 67 | 69 | 4.0 | 5.0 | 0.00 | 0.00 | 0.00 | 40 | 1012.1 |
| 20260507051548 | 67 | 345 | 0.0 | 5.0 | 0.00 | 0.00 | 0.00 | 42 | 1011.8 |
| 20260507050104 | 68 | 273 | 0.0 | 0.0 | 0.00 | 0.00 | 0.00 | 41 | 1011.7 |
| 20260507044553 | 70 | 328 | 1.0 | 6.0 | 0.00 | 0.00 | 0.00 | 39 | 1011.7 |
| 20260507043046 | 69 | 77 | 0.0 | 5.0 | 0.00 | 0.00 | 0.00 | 40 | 1011.5 |
| 20260507041547 | 69 | 63 | 0.0 | 0.0 | 0.00 | 0.00 | 0.00 | 41 | 1011.4 |
| 20260507040048 | 71 | 176 | 0.0 | 1.0 | 0.00 | 0.00 | 0.00 | 39 | 1011.3 |
| 20260507034546 | 71 | 262 | 0.0 | 5.0 | 0.00 | 0.00 | 0.00 | 40 | 1011.0 |
| 20260507033029 | 72 | 201 | 1.0 | 4.0 | 0.00 | 0.00 | 0.00 | 38 | 1010.8 |
| 20260507031523 | 73 | 18 | 1.0 | 4.0 | 0.00 | 0.00 | 0.00 | 37 | 1010.5 |
| 20260507030005 | 75 | 19 | 0.0 | 6.0 | 0.00 | 0.00 | 0.00 | 35 | 1010.4 |
| 20260507024502 | 78 | 322 | 8.0 | 17.0 | 0.00 | 0.00 | 0.00 | 31 | 1010.2 |
| 20260507023044 | 78 | 339 | 6.0 | 15.0 | 0.00 | 0.00 | 0.00 | 32 | 1010.2 |
| 20260507021554 | 78 | 320 | 5.0 | 13.0 | 0.00 | 0.00 | 0.00 | 32 | 1010.2 |
| 20260507020026 | 78 | 41 | 11.0 | 16.0 | 0.00 | 0.00 | 0.00 | 31 | 1010.0 |
| 20260507014525 | 79 | 340 | 8.0 | 13.0 | 0.00 | 0.00 | 0.00 | 30 | 1010.0 |
| 20260507013009 | 80 | 353 | 11.0 | 18.0 | 0.00 | 0.00 | 0.00 | 29 | 1009.8 |
| 20260507011514 | 80 | 335 | 9.0 | 14.0 | 0.00 | 0.00 | 0.00 | 28 | 1009.7 |
| 20260507010048 | 81 | 43 | 8.0 | 17.0 | 0.00 | 0.00 | 0.00 | 27 | 1009.7 |
| 20260507004547 | 82 | 20 | 10.0 | 17.0 | 0.00 | 0.00 | 0.00 | 25 | 1009.7 |
| 20260507003029 | 83 | 360 | 8.0 | 14.0 | 0.00 | 0.00 | 0.00 | 26 | 1009.8 |
| 20260507001530 | 83 | 228 | 14.0 | 19.0 | 0.00 | 0.00 | 0.00 | 36 | 1009.0 |
| 20260507000007 | 84 | 214 | 12.0 | 21.0 | 0.00 | 0.00 | 0.00 | 34 | 1008.8 |
| 20260506234507 | 85 | 245 | 18.0 | 26.0 | 0.00 | 0.00 | 0.00 | 32 | 1008.7 |
| 20260506233050 | 85 | 252 | 20.0 | 27.0 | 0.00 | 0.00 | 0.00 | 33 | 1008.7 |
| 20260506231546 | 85 | 233 | 22.0 | 28.0 | 0.00 | 0.00 | 0.00 | 33 | 1008.7 |
| 20260506230026 | 85 | 229 | 18.0 | 27.0 | 0.00 | 0.00 | 0.00 | 31 | 1009.0 |
| 20260506224526 | 85 | 211 | 21.0 | 27.0 | 0.00 | 0.00 | 0.00 | 30 | 1009.1 |
| 20260506223004 | 85 | 203 | 19.0 | 25.0 | 0.00 | 0.00 | 0.00 | 31 | 1009.5 |